Wuhan Tianhe International Airport
ZHHH : rendu visible

Aérodrome :











RETROUVEZ-NOUS SUR...

 
LOGIN :

S'inscrire | Disclaimer

   EN    FR    IT 

 









Légende :    VFR   VFR Marginal   IFR   IFR Intensif   IFR Très Intensif
Visi : 
Plafond : 
>= 8 km
>= 3000ft
5 à 8 km
1000 à 3000 ft
1500m à 5 km
500 à 1000 ft
800 à 1500m
200 à 500 ft
< 800m
< 200 ft
Symboles :   Orages  Brouillard  Fortes neiges  Fortes précipitations  Vent > 20 kt






- Altitude de l'aérodrome : 113 ft
- Code IATA : WUH


ZHHH - Wuhan Tianhe International

DERNIER METAR :
  • 022100Z 02003MPS 340V060 4500 BR NSC 05/01 Q1034 NOSIG

METARs EXPIRÉS :
  • 022000Z 02003MPS 310V050 4500 BR NSC 05/02 Q1034 NOSIG
  • 021900Z 02003MPS 340V050 4500 BR NSC 05/02 Q1034 NOSIG

TAF TAF ZHHH
Valide du 02 à 18h jusqu'au 03 à 18h UTC


021503Z 0218/0318 02003MPS 3000 BR NSC TX08/0307Z TN02/0222Z
BECMG 0221/0222 2000
BECMG 0301/0302 3000
FIR ZHWH / Asie



MET'MAP, la Météo Aéronautique d'un coup d'oeil ! - Copyright ORBIFLY Décembre 2007 - Disclaimer

ORBIFLY MET'MAP TEAM :

Programmation & Développement : Alexandra Zaïnal
Sur une idée originale de : Baudouin d'Aumeries
Assistance à la programmation : Marc-Olivier Méhu
Soutien technique & logistique : Manuel Goepfert

Contact : metmap@orbifly.com




SOURCES & CREDITS :

   NOAA       Earth
Advisory